GW0604 Weather Reports


time (UTC)temp
C
wind
direction
speed
KPH
gust
KPH
rain 1hr
cm
rain 24hr
cm
rain mn
cm
humidity
%
barometer
mb
20260906121610 20 0 0.0 0.0 0.00 0.00 0.00 88 1018.9
20260906120112 20 0 0.0 1.6 0.00 0.00 0.00 89 1018.7
20260906114612 20 0 0.0 0.0 0.00 0.00 0.00 90 1018.5
20260906113108 19 0 0.0 0.0 0.00 0.00 0.00 91 1018.4
20260906111607 19 0 0.0 0.0 0.00 0.00 0.00 91 1018.5
20260906110104 19 0 0.0 0.0 0.00 0.00 0.00 92 1018.2
20260906104605 19 0 0.0 0.0 0.00 0.00 0.00 92 1017.9
20260906103112 20 0 0.0 0.0 0.00 0.00 0.00 93 1017.9
20260906101604 19 0 0.0 0.0 0.00 0.00 0.00 93 1017.6
20260906094604 19 0 0.0 0.0 0.00 0.00 0.00 93 1017.6
20260906093111 19 0 0.0 0.0 0.00 0.00 0.00 93 1017.6
20260906091606 19 0 0.0 0.0 0.00 0.00 0.00 93 1017.6
20260906090104 19 0 0.0 0.0 0.00 0.00 0.00 92 1017.5
20260906084603 19 0 0.0 0.0 0.00 0.00 0.00 92 1017.5
20260906083105 19 0 0.0 0.0 0.00 0.00 0.00 92 1017.6
20260906081607 19 0 0.0 0.0 0.00 0.00 0.00 92 1017.5
20260906080234 19 0 0.0 0.0 0.00 0.00 0.00 91 1017.4
20260906074602 19 0 0.0 0.0 0.00 0.00 0.00 91 1017.3
20260906073101 19 0 0.0 0.0 0.00 0.00 0.00 90 1017.5
20260906071606 20 0 0.0 0.0 0.00 0.00 0.00 90 1017.4
20260906070105 20 0 0.0 0.0 0.00 0.00 0.00 90 1017.5
20260906064602 20 0 0.0 0.0 0.00 0.00 0.00 89 1017.5
20260906063101 20 0 0.0 0.0 0.00 0.00 0.00 89 1017.6
20260906061626 20 0 0.0 0.0 0.00 0.00 0.00 88 1017.6
20260906060123 21 0 0.0 1.6 0.00 0.00 0.00 88 1017.5
20260906054604 21 0 0.0 1.6 0.00 0.00 0.00 87 1017.7
20260906053102 21 74 0.0 3.2 0.00 0.00 0.00 88 1017.3
20260906051610 21 0 0.0 1.6 0.00 0.00 0.00 89 1017.3
20260906050106 21 0 0.0 3.2 0.00 0.00 0.00 89 1017.1
20260906044606 21 0 0.0 6.4 0.00 0.00 0.00 90 1017.0
20260906043107 21 0 0.0 4.8 0.00 0.00 0.00 90 1017.0
20260906041605 21 77 0.0 8.0 0.00 0.00 0.00 90 1016.7
20260906040129 21 79 0.0 6.4 0.00 0.00 0.00 90 1016.7
20260906034607 21 98 0.0 6.4 0.00 0.00 0.00 90 1016.6
20260906033111 21 80 0.0 11.3 0.00 0.00 0.00 90 1016.5
20260906031609 21 107 0.0 16.1 0.00 0.00 0.00 90 1016.5
20260906030116 21 0 1.6 19.3 0.00 0.00 0.00 90 1016.6
20260906024608 21 0 1.6 11.3 0.00 0.00 0.00 91 1016.6
20260906023110 21 90 1.6 12.9 0.00 0.00 0.00 91 1016.4
20260906021611 21 40 0.0 9.7 0.00 0.00 0.00 90 1016.7
20260906020107 21 0 0.0 12.9 0.00 0.00 0.00 90 1016.8
20260906014608 21 0 0.0 6.4 0.00 0.00 0.00 90 1016.7
20260906013103 21 0 0.0 9.7 0.00 0.00 0.00 90 1016.7
20260906011607 21 73 0.0 9.7 0.00 0.00 0.00 89 1016.5
20260906010108 21 88 0.0 14.5 0.00 0.00 0.00 88 1016.3
20260906004607 21 69 0.0 16.1 0.00 0.00 0.00 88 1016.1
20260906003104 21 48 0.0 19.3 0.00 0.00 0.00 88 1016.1
20260906001606 21 53 1.6 19.3 0.00 0.00 0.00 89 1016.1
20260906000111 21 0 0.0 16.1 0.00 0.00 0.00 89 1016.2
20260905234606 21 0 0.0 16.1 0.00 0.00 0.00 89 1016.1
20260905233120 21 0 3.2 16.1 0.00 0.00 0.00 88 1016.1
20260905231608 21 0 1.6 16.1 0.00 0.00 0.00 88 1016.0
20260905230109 21 128 1.6 19.3 0.00 0.00 0.00 88 1016.0
20260905224606 21 89 1.6 19.3 0.00 0.00 0.00 88 1015.9
20260905223107 21 30 1.6 16.1 0.00 0.00 0.00 88 1016.1
20260905221608 21 32 0.0 12.9 0.00 0.00 0.00 87 1016.1
20260905220106 22 0 1.6 14.5 0.00 0.00 0.00 87 1015.9
20260905214617 22 0 3.2 16.1 0.00 0.00 0.00 88 1015.6
20260905213113 22 0 1.6 11.3 0.00 0.00 0.00 88 1015.4
20260905211614 22 0 0.0 6.4 0.00 0.00 0.00 88 1015.3
20260905210114 22 0 0.0 11.3 0.00 0.00 0.00 88 1015.3
20260905204607 23 84 1.6 14.5 0.00 0.00 0.00 87 1015.2
20260905203107 23 0 1.6 11.3 0.00 0.00 0.00 86 1015.2
20260905201608 23 103 3.2 16.1 0.00 0.00 0.00 86 1015.3
20260905200104 23 0 3.2 17.7 0.00 0.00 0.00 86 1015.3
20260905194608 23 78 3.2 11.3 0.00 0.00 0.00 87 1015.4
20260905193105 22 55 3.2 9.7 0.00 0.00 0.00 87 1015.6
20260905191606 22 51 1.6 9.7 0.00 0.00 0.00 87 1015.6
20260905190107 23 0 0.0 11.3 0.00 0.00 0.00 87 1015.5
20260905184611 23 0 0.0 14.5 0.00 0.18 0.00 87 1015.8
20260905183119 23 0 0.0 9.7 0.00 0.18 0.00 86 1015.7
20260905181606 22 65 1.6 12.9 0.00 0.18 0.00 88 1015.8
20260905180105 22 0 3.2 16.1 0.00 0.18 0.00 87 1015.7
20260905174601 22 67 0.0 12.9 0.00 0.48 0.00 87 1015.5
20260905173113 23 0 1.6 14.5 0.00 0.48 0.00 85 1015.6
20260905171604 23 0 1.6 12.9 0.00 0.48 0.00 85 1015.6
20260905170104 23 88 0.0 8.0 0.00 0.48 0.00 85 1015.7
20260905164606 23 52 0.0 9.7 0.00 0.48 0.00 86 1015.8
20260905163109 23 0 1.6 14.5 0.00 0.48 0.00 87 1015.8
20260905161605 22 15 1.6 12.9 0.00 0.48 0.00 88 1015.9
20260905154611 22 0 1.6 12.9 0.00 0.48 0.00 89 1015.5
20260905153119 22 0 1.6 9.7 0.00 0.48 0.00 90 1015.3
20260905151619 22 51 1.6 9.7 0.00 0.48 0.00 91 1015.3
20260905150117 22 46 4.8 16.1 0.00 0.48 0.00 92 1015.1
20260905144624 22 0 0.0 14.5 0.00 0.48 0.00 93 1015.0
20260905143116 21 94 0.0 14.5 0.00 0.48 0.00 93 1014.8
20260905141631 21 58 0.0 14.5 0.00 0.48 0.00 94 1014.7
20260905140109 21 0 1.6 11.3 0.00 0.48 0.00 94 1014.6
20260905134603 21 0 0.0 19.3 0.00 0.48 0.00 94 1014.6
20260905133104 21 32 3.2 14.5 0.00 0.48 0.00 94 1014.9
20260905131618 21 14 4.8 16.1 0.00 0.48 0.00 94 1014.8
20260905130107 21 0 1.6 8.0 0.00 0.48 0.00 94 1014.5
20260905124607 22 45 0.0 8.0 0.00 0.48 0.00 95 1014.3
20260905123111 22 0 0.0 8.0 0.00 0.48 0.00 94 1014.0